Pace Fire Rescue Station 4 FL US WEATHERSTEM current weather conditions

sailwx.info

Air temperature 12.6° C
Dewpoint 7.6° C

Last reported at 2020-Sep-30 06:00 UTC.
Time now 2020-Sep-30 06:52 UTC

Location: N 30°42' W 087°11'.
View on Google Maps.

See reports from other nearby stations

  
Tides and Currents Weather Stations Pressure Air Temp Water Temp Dewpoint Dewpoint Depression Visibility Wind Speed Wind Dir Waves Ship Positions
date/time (UTC)wind fromknots sea level pressurealtimeterstation pressurevisibilityair tempwater tempwave heightnotes
2020-Sep-30 06:00 12.6
2020-Sep-30 05:50 12.7
2020-Sep-30 05:40 12.9
2020-Sep-30 05:30 13.2
2020-Sep-30 05:20 13.3
2020-Sep-30 05:10 13.4
2020-Sep-30 05:00 13.9
2020-Sep-30 04:50 14.4
2020-Sep-30 04:40 14.8
2020-Sep-30 04:30 14.9
2020-Sep-30 04:20 15.1
2020-Sep-30 04:10 15.2
2020-Sep-30 04:00 15.4
2020-Sep-30 03:50 15.7
2020-Sep-30 03:40 15.8
2020-Sep-30 03:30 15.9
2020-Sep-30 03:20 333 0 gusting 2 16.1
2020-Sep-30 03:10 334 0 gusting 1 16.2
2020-Sep-30 03:00 330 1 gusting 3 16.3
2020-Sep-30 02:50 16.4
2020-Sep-30 02:40 321 1 gusting 3 16.6
2020-Sep-30 02:30 16.8
2020-Sep-30 02:20 327 0 gusting 2 16.9
2020-Sep-30 02:10 327 1 gusting 2 17.1
2020-Sep-30 02:00 322 1 gusting 3 17.1
2020-Sep-30 01:50 329 4 gusting 4 17.1
2020-Sep-30 01:40 305 1 gusting 4 17.2
2020-Sep-30 01:30 314 2 gusting 2 17.3
2020-Sep-30 01:20 17.5
2020-Sep-30 01:10 17.7
2020-Sep-30 01:00 18.0
2020-Sep-30 00:50 18.2
2020-Sep-30 00:40 18.4
2020-Sep-30 00:30 18.7
2020-Sep-30 00:20 19.1
2020-Sep-30 00:10 19.3
2020-Sep-30 00:00 315 0 gusting 2 19.7
2020-Sep-29 23:50 311 0 gusting 2 20.1
2020-Sep-29 23:40 20.4
2020-Sep-29 23:30 311 0 gusting 3 20.8
2020-Sep-29 23:20 329 2 gusting 6 21.1
2020-Sep-29 23:10 325 1 gusting 5 21.4
2020-Sep-29 23:00 340 2 gusting 10 21.6
2020-Sep-29 22:50 009 2 gusting 8 21.8
2020-Sep-29 22:40 351 6 gusting 8 21.8
2020-Sep-29 22:20 017 2 gusting 9 21.9
2020-Sep-29 22:10 013 2 gusting 10 21.9
2020-Sep-29 22:00 319 6 gusting 11 21.9
2020-Sep-29 21:50 320 5 gusting 10 21.7
2020-Sep-29 21:40 360 3 gusting 9 21.3
2020-Sep-29 21:30 355 3 gusting 11 21.8
2020-Sep-29 21:20 342 5 gusting 11 21.9
2020-Sep-29 21:10 037 3 gusting 10 21.8
2020-Sep-29 21:00 289 3 gusting 10 21.3
2020-Sep-29 20:40 034 4 gusting 11 20.8
2020-Sep-29 20:30 082 2 gusting 10 20.7
2020-Sep-29 20:00 336 2 gusting 9 20.4
2020-Sep-29 19:50 302 9 gusting 10 20.3
2020-Sep-29 19:30 043 3 gusting 12 20.2
2020-Sep-29 19:20 336 3 gusting 13 19.8
2020-Sep-29 19:10 344 4 gusting 13 19.7
2020-Sep-29 19:00 005 3 gusting 13 19.9
2020-Sep-29 18:50 013 3 gusting 12 19.8
2020-Sep-29 18:40 316 6 gusting 12 19.5
2020-Sep-29 18:20 321 7 gusting 12 19.4
2020-Sep-29 18:10 019 8 gusting 11 19.2
2020-Sep-29 18:00 317 10 gusting 11 19.0
2020-Sep-29 17:50 331 5 gusting 13 18.9
2020-Sep-29 17:40 342 8 gusting 12 18.7
2020-Sep-29 17:30 350 8 gusting 13 18.3
2020-Sep-29 17:20 019 8 gusting 11 18.0
2020-Sep-29 17:10 032 3 gusting 12 17.9
2020-Sep-29 17:00 334 3 gusting 7 17.9
2020-Sep-29 16:50 317 2 gusting 9 17.9
2020-Sep-29 16:40 335 5 gusting 8 18.2
2020-Sep-29 16:30 317 4 gusting 10 18.4
2020-Sep-29 16:20 342 4 gusting 12 18.4
2020-Sep-29 16:10 309 3 gusting 11 18.5
2020-Sep-29 16:00 302 6 gusting 8 18.8
2020-Sep-29 15:50 301 7 gusting 9 19.1
2020-Sep-29 15:40 303 3 gusting 9 19.3
2020-Sep-29 15:30 342 1 gusting 9 19.1
2020-Sep-29 15:20 338 4 gusting 11 18.8
2020-Sep-29 15:10 313 1 gusting 9 18.7
2020-Sep-29 15:00 017 3 gusting 10 18.5
2020-Sep-29 14:50 019 10 gusting 13 18.4
2020-Sep-29 14:40 348 10 gusting 15 18.4
2020-Sep-29 14:30 318 3 gusting 14 18.5
2020-Sep-29 14:20 306 6 gusting 14 18.4
2020-Sep-29 14:10 336 3 gusting 12 18.2
2020-Sep-29 14:00 009 6 gusting 13 17.9
2020-Sep-29 13:50 334 3 gusting 11 17.8
2020-Sep-29 13:40 013 6 gusting 10 17.6
2020-Sep-29 13:30 351 5 gusting 10 17.5
2020-Sep-29 13:20 313 1 gusting 9 17.4
2020-Sep-29 13:10 329 3 gusting 11 17.3
2020-Sep-29 13:00 360 3 gusting 10 17.3
2020-Sep-29 12:50 333 7 gusting 10 17.2
2020-Sep-29 12:40 345 6 gusting 13 17.2
2020-Sep-29 12:30 325 4 gusting 11 17.3
2020-Sep-29 12:20 338 1 gusting 9 17.3
2020-Sep-29 12:10 350 4 gusting 7 17.2
2020-Sep-29 12:00 005 0 gusting 9 17.2
2020-Sep-29 11:50 017 2 gusting 9 17.2
2020-Sep-29 11:40 318 7 gusting 10 17.2
2020-Sep-29 11:30 009 4 gusting 7 17.2
2020-Sep-29 11:20 038 4 gusting 9 17.2
2020-Sep-29 11:10 325 2 gusting 9 17.2
2020-Sep-29 11:00 331 2 gusting 9 17.2
2020-Sep-29 10:50 319 5 gusting 10 17.2
2020-Sep-29 10:40 345 5 gusting 8 17.2
2020-Sep-29 10:30 015 1 gusting 8 17.2
2020-Sep-29 10:20 348 4 gusting 10 17.2
2020-Sep-29 10:10 334 1 gusting 9 17.2
2020-Sep-29 10:00 011 6 gusting 10 17.2
2020-Sep-29 09:50 323 3 gusting 9 17.3
2020-Sep-29 09:40 346 2 gusting 12 17.3
2020-Sep-29 09:30 030 9 gusting 10 17.4
2020-Sep-29 09:20 360 2 gusting 8 17.5
2020-Sep-29 09:10 330 4 gusting 7 17.6
2020-Sep-29 09:00 351 3 gusting 8 17.6
2020-Sep-29 08:50 011 2 gusting 7 17.7
2020-Sep-29 08:40 355 3 gusting 6 17.7
2020-Sep-29 08:30 351 1 gusting 8 17.8
2020-Sep-29 08:20 304 2 gusting 6 17.8
2020-Sep-29 08:10 355 2 gusting 11 17.8
2020-Sep-29 07:50 325 5 gusting 9 18.1
2020-Sep-29 07:40 342 2 gusting 10 18.1
2020-Sep-29 07:30 360 5 gusting 10 18.2
2020-Sep-29 07:20 350 4 gusting 7 18.3
2020-Sep-29 07:10 339 1 gusting 8 18.4
2020-Sep-29 07:00 046 1 gusting 10 18.5
2020-Sep-29 06:50 335 4 gusting 10 18.5
2020-Sep-29 06:40 350 3 gusting 9 18.6
2020-Sep-29 06:30 019 0 gusting 11 18.6
2020-Sep-29 06:20 360 5 gusting 10 18.7
2020-Sep-29 06:10 310 1 gusting 6 18.8
2020-Sep-29 05:50 349 2 gusting 11 18.9
2020-Sep-29 05:40 351 3 gusting 9 18.9
2020-Sep-29 05:30 321 2 gusting 9 18.9
2020-Sep-29 05:20 344 8 gusting 9 19.1
2020-Sep-29 05:10 313 4 gusting 11 19.3
2020-Sep-29 05:00 315 6 gusting 10 19.6
2020-Sep-29 04:50 005 4 gusting 13 19.9
2020-Sep-29 04:40 010 4 gusting 13 20.4
2020-Sep-29 04:30 292 6 gusting 9 21.1
2020-Sep-29 04:20 347 2 gusting 8 21.7
2020-Sep-29 04:10 342 3 gusting 12 21.8
2020-Sep-29 03:50 304 4 gusting 7 22.3
2020-Sep-29 03:40 334 1 gusting 6 22.3
2020-Sep-29 03:30 309 1 gusting 5 22.3
2020-Sep-29 03:20 331 2 gusting 5 22.2
2020-Sep-29 03:10 293 2 gusting 6 22.2
2020-Sep-29 03:00 327 3 gusting 5 22.2
2020-Sep-29 02:50 337 1 gusting 10 22.2
2020-Sep-29 02:40 328 3 gusting 8 22.3
2020-Sep-29 02:30 301 6 gusting 8 22.4
2020-Sep-29 02:20 291 6 gusting 8 22.6
2020-Sep-29 02:10 294 3 gusting 8 22.6
2020-Sep-29 02:00 310 4 gusting 7 22.6
2020-Sep-29 01:50 309 6 gusting 7 22.6
2020-Sep-29 01:40 317 1 gusting 4 22.7
2020-Sep-29 01:30 300 2 gusting 6 22.7
2020-Sep-29 01:20 314 3 gusting 5 22.8
2020-Sep-29 01:10 296 2 gusting 7 23.0
2020-Sep-29 01:00 319 3 gusting 6 23.2
2020-Sep-29 00:50 298 6 gusting 6 23.4
2020-Sep-29 00:40 267 6 gusting 7 23.6
2020-Sep-29 00:30 284 5 gusting 13 24.1
2020-Sep-29 00:10 255 2 gusting 4 25.2
2020-Sep-28 23:50 283 2 gusting 7 26.1
2020-Sep-28 23:30 255 2 gusting 13 27.1
2020-Sep-28 23:20 257 9 gusting 13 27.7
2020-Sep-28 23:10 236 7 gusting 10 28.0
2020-Sep-28 23:00 250 7 gusting 13 28.3
2020-Sep-28 22:50 227 4 gusting 13 28.7
2020-Sep-28 22:40 240 5 gusting 10 29.0
2020-Sep-28 22:20 234 5 gusting 10 29.5
2020-Sep-28 22:00 219 3 gusting 8 29.8
2020-Sep-28 21:50 200 6 gusting 8 30.2
2020-Sep-28 21:40 225 4 gusting 9 30.7
2020-Sep-28 21:20 213 4 gusting 8 30.8
2020-Sep-28 21:10 225 10 gusting 11 30.8
2020-Sep-28 17:10 187 1 gusting 6 30.1
2020-Sep-28 17:00 254 6 gusting 7 29.8
2020-Sep-28 16:50 218 6 gusting 8 29.8
2020-Sep-28 16:40 216 4 gusting 11 29.4
2020-Sep-28 16:30 260 1 gusting 7 29.1
2020-Sep-28 16:20 228 3 gusting 7 28.6
2020-Sep-28 16:10 277 0 gusting 6 28.0
2020-Sep-28 16:00 294 6 gusting 8 28.0
2020-Sep-28 15:50 292 6 gusting 9 28.3
2020-Sep-28 15:40 294 3 gusting 8 27.7
2020-Sep-28 15:30 257 7 gusting 8 27.1
2020-Sep-28 15:20 233 6 gusting 9 26.6
2020-Sep-28 15:10 265 5 gusting 7 26.2
2020-Sep-28 15:00 264 2 gusting 7 25.7
2020-Sep-28 14:50 229 6 gusting 6 25.2
2020-Sep-28 12:50 22.2
2020-Sep-28 12:40 067 3 gusting 4 22.0
2020-Sep-28 12:30 057 1 gusting 2 21.9
2020-Sep-28 12:20 21.9
2020-Sep-28 12:00 21.9
2020-Sep-28 11:50 21.9
2020-Sep-28 11:40 21.9
2020-Sep-28 11:30 21.9
2020-Sep-28 11:20 21.9
2020-Sep-28 11:10 21.8
2020-Sep-28 11:00 21.8
2020-Sep-28 10:50 21.7
2020-Sep-28 10:40 21.6
2020-Sep-28 10:30 041 0 gusting 2 21.6
2020-Sep-28 10:20 049 1 gusting 2 21.6
2020-Sep-28 10:10 21.7
2020-Sep-28 09:50 065 1 gusting 3 21.7
2020-Sep-28 09:40 035 0 gusting 2 21.7
2020-Sep-28 09:30 029 0 gusting 2 21.7
2020-Sep-28 09:20 21.6
2020-Sep-28 09:10 057 0 gusting 2 21.6
2020-Sep-28 09:00 051 0 gusting 1 21.5
2020-Sep-28 08:30 21.3
2020-Sep-28 08:20 063 0 gusting 3 21.3
2020-Sep-28 08:10 21.3
2020-Sep-28 08:00 033 0 gusting 2 21.3
2020-Sep-28 07:50 030 1 gusting 2 21.4
2020-Sep-28 07:40 21.4
2020-Sep-28 07:30 047 1 gusting 3 21.5
2020-Sep-28 07:20 21.6
2020-Sep-28 07:00 21.8
2020-Sep-28 06:50 066 1 gusting 2 21.9
2020-Sep-28 06:40 066 1 gusting 3 21.9
2020-Sep-28 06:30 22.0
2020-Sep-28 06:20 22.1
2020-Sep-28 06:10 22.2
2020-Sep-28 06:00 22.3